Weather in Kolhoznoe

Russia / Sakhalin District     46°38′53″N   141°54′51″E
В апреле 2022 года жителям России запретили посещать сайт meteo.paraplan.net по решению Генеральной прокуратуры. Аудитория сайта уменьшилась в 10 раз. Владельцы сайта не видят смысла в поддержке погодного сервера в таких условиях. Сайт будет закрыт в октябре.
temp.,
°C
wind,
m/s
gust,
m/s
humid.,
%
clouds,
%
prec.,
mm/h
press.,
hPa
HPBL,
m
25 september, sun
sun2523:00+13sw8148627 0.2 10031101
02:00+13wsw7128911 0.1 10031023
05:00+13wsw7138934 0.2 1003903
08:00+13wnw7118313 0.0 1006824
11:00+15wnw710745 0.1 10091217
14:00+15wnw696132 0.0 10111398
17:00+15wnw47650 0.0 1013722
20:00+10ssw1190100 0.0 101510
26 september, mon
mon2623:00+10se1178100 0.0 101618
02:00+10se2173100 0.0 101622
05:00+10ese2281100 0.0 101628
08:00+11se239381 0.0 101668
11:00+17ssw47695 0.0 1015926
14:00+19ssw58622 0.0 10141182
17:00+17ssw59720 0.0 1013892
20:00+14ssw4109848 0.0 1013466
27 september, tue
tue2723:00+14ssw4119741 0.0 1013474
02:00+13sw499712 0.0 1012410
05:00+12w249710 0.0 1014104
08:00+10nw28870 0.0 1015241
11:00+14wnw610580 0.0 10161054
14:00+15wnw59470 0.0 10161038
17:00+14w49490 0.0 1015840
20:00+9sse23790 0.0 101751
28 september, wed
wed2823:00+9s26831 0.0 1017124
02:00+10s39880 0.0 1016176
05:00+10s23900 0.0 101456
08:00+10sse36930 0.0 1014131
11:00+18ssw510580 0.0 1012632
14:00+19ssw611510 0.0 1010779
17:00+18ssw512650 0.0 1009679
20:00+14ssw514750 0.0 1009563
29 september, thu
thu2923:00+15ssw5157512 0.0 1008541
02:00+14sw512891 0.0 1008503
05:00+13ssw249955 0.0 100895
08:00+14sw119496 0.0 1010159
11:00+18nne23693 0.0 1011530
14:00+18e237069 0.1 1012762
17:00+16se348152 0.1 1013438
20:00+11ese339030 0.0 1014127